Regional Weather Roundup
Issued by NWS

Home | Current Version | Previous Version | Graphics & Text | Print | Product List | Glossary On
Versions: 1 2 3 4 5 6 7 8 9 10 11 12 13 14 15 16 17 18 19 20 21 22 23 24 25 26 27 28 29 30 31 32 33 34 35 36 37 38 39 40 41 42 43 44 45 46 47 48 49 50
000
ASUS45 KCYS 202010
RWRWY

WYOMING REGIONAL WEATHER ROUNDUP
NATIONAL WEATHER SERVICE CHEYENNE WY
200 PM MDT WED AUG 20 2014

NOTE:  "FAIR" INDICATES FEW OR NO CLOUDS BELOW 12,000 FEET
WITH NO SIGNIFICANT WEATHER AND/OR OBSTRUCTIONS TO VISIBILITY.

WYZ001-202100-
YELLOWSTONE NATIONAL PARK

CITY           SKY/WX    TMP DP  RH WIND       PRES   REMARKS
LK YELLOWSTONE   N/A     56  44  64 CALM      30.15S
W YELLOWSTONE  NOT AVBL

$$
WYZ002>013-054>058-071-098>099-202100-
NORTHERN WYOMING

CITY           SKY/WX    TMP DP  RH WIND       PRES   REMARKS
JACKSON          N/A     66  50  55 CALM      30.06F
CODY           PTSUNNY  N/A N/A N/A N6        29.92F
GREYBULL       PTSUNNY   80  42  25 VRB5      29.84F
WORLAND        PTSUNNY   81  44  27 VRB5      29.86S
SHERIDAN       CLOUDY    77  47  34 NW15      29.87S
BUFFALO        PTSUNNY   77  44  30 NW21G26   29.93R
GILLETTE       MOSUNNY   83  46  27 NW16G25   29.86R
HULETT         FAIR      81  45  28 MISG      29.84
NEWCASTLE      FAIR      82  37  20 MISG      29.82

$$
WYZ014>020-022>026-101>103-202100-
CENTRAL WYOMING

CITY           SKY/WX    TMP DP  RH WIND       PRES   REMARKS
BIG PINEY      TSTM      56  45  66 N10G26    30.14R
PINEDALE       MOCLDY    66  37  34 W16       30.11S
DUBOIS         FAIR      64  39  39 N22       30.06F
LANDER         MOSUNNY   80  39  23 SE5       29.93F
RIVERTON       SUNNY     81  36  19 W13G26    29.93F
CASPER         MOSUNNY   85  40  20 NW14G20   29.91F
DOUGLAS        PTSUNNY   82  45  27 W20       29.90R

$$
WYZ021-027>030-104>119-202100-
SOUTHERN WYOMING

CITY           SKY/WX    TMP DP  RH WIND       PRES   REMARKS
EVANSTON       MOSUNNY   67  48  50 W15G25    30.12F
KEMMERER       MOCLDY    70  43  37 W14       30.12S
FORT BRIDGER   FAIR      73  48  40 W12G22    30.13F
ROCK SPRINGS   PTSUNNY   70  44  39 W18       30.09S
DIXON          MOCLDY    61  56  84 SE5       30.14F
RAWLINS        CLOUDY    69  45  41 W16       30.08R
SARATOGA       CLOUDY    63  52  67 MISG      30.14R
LARAMIE        MOSUNNY   73  45  36 W17       30.08R
CHEYENNE       MOSUNNY   81  45  28 W15G30    30.00S
TORRINGTON     SUNNY     89  48  24 W16G22    29.84R
PINE BLUFFS    MOCLDY    86  45  23 W14G22    29.93S

$$



USA.gov is the U.S. government's official web portal to all federal, state and local government web resources and services.